Cosmos 1340 - Orbit

View from above orbital plane
View from above orbital plane
View from above satellite
View from above satellite

Ground track
Ground track

The orbit data is extracted from the following two-line orbital elements,

1 13067U 82013A   13144.18488003  .00004807  00000-0  29697-3 0  1050
2 13067 081.1930 054.9246 0005369 096.6457 068.8064 15.09695069702901
Epoch (UTC): 24 May 2013 04:26:13
Eccentricity: 0.0005369
inclination: 81.1930°
perigee height: 533 km
apogee height: 541 km
right ascension of ascending node: 54.9246°
argument of perigee: 96.6457°
revolutions per day: 15.09695069
mean anomaly at epoch: 68.8064°
orbit number at epoch: 70290

The dashed part of the orbit path shows where the satellite is in the earth's shadow,  

Developed and maintained by Chris Peat, Heavens-Above GmbH. Please read the updated FAQ before sending e-mail. Imprint. DLR